Flagstaff, AZ

12:36 AM MST on May 25, 2018 (GMT -0700)
Flagstaff Pulliam

Weather History for KFLG - October, 2010

Change the Weather History Date:

Tuesday, October 12, 2010

  Actual Average Record
Temperature  
Mean Temperature 52 °F 48 °F  
Max Temperature 69 °F 63 °F 83 °F (1950)
Min Temperature 35 °F 33 °F 9 °F (1969)
Degree Days  
Heating Degree Days 13 17  
Month to date heating degree days 149 181  
Since 1 July heating degree days 344 498  
Cooling Degree Days 0 0  
Month to date cooling degree days 0 0  
Year to date cooling degree days 160 117  
Growing Degree Days 2 (Base 50)    
Moisture  
Dew Point 36 °F    
Average Humidity 62    
Maximum Humidity 92    
Minimum Humidity 32    
Precipitation  
Precipitation 0.00 in 0.05 in 1.10 in (1899)
Month to date precipitation 2.45 0.67  
Year to date precipitation 22.22 17.24  
Snow  
Snow 0.00 in 0.00 in 0.20 in (1947)
Month to date snowfall 0.0 0.2  
Since 1 July snowfall 0.0 0.2  
Snow Depth -    
Sea Level Pressure  
Sea Level Pressure 30.15 in    
Wind  
Wind Speed 4 mph (ENE)    
Max Wind Speed 16 mph    
Max Gust Speed 24 mph    
Visibility 10 miles    
Events      
T = Trace of Precipitation, MM = Missing Value Source: NWS Daily Summary

Daily Weather History Graph

Daily Weather History Graph

Search for Another Location

Airport or City:

Astronomy

Oct. 12, 2010 Rise Set
Actual Time 6:30 AM MST 5:55 PM MST
Civil Twilight 6:04 AM MST 6:20 PM MST
Nautical Twilight 5:35 AM MST 6:50 PM MST
Astronomical Twilight 5:06 AM MST 7:19 PM MST
Moon 11:54 AM MST (10/12) 9:47 PM MST (10/12)
Length of Visible Light 12h 16m
Length of Day
11h 25m
Waxing Crescent, 29% of the Moon is Illuminated
Oct 12
Waxing Crescent
Oct 14
First Quarter
Oct 22
Full
Oct 30
Last Quarter
Nov 5
New

Hourly Weather History & Observations

Time (MST) Temp. Dew Point Humidity Pressure Visibility Wind Dir Wind Speed Gust Speed Precip Events Conditions
12:56 AM 39.0 °F 33.1 °F 79% 30.09 in 10.0 mi Calm Calm - N/A   Clear
1:56 AM 39.9 °F 34.0 °F 79% 30.08 in 10.0 mi Calm Calm - N/A   Clear
2:56 AM 39.0 °F 34.0 °F 82% 30.06 in 10.0 mi Calm Calm - N/A   Clear
3:56 AM 37.9 °F 33.1 °F 83% 30.08 in 10.0 mi Calm Calm - N/A   Clear
4:56 AM 36.0 °F 33.1 °F 89% 30.11 in 10.0 mi Calm Calm - N/A   Clear
5:56 AM 37.0 °F 32.0 °F 82% 30.15 in 10.0 mi Calm Calm - N/A   Clear
6:56 AM 37.0 °F 33.1 °F 86% 30.18 in 10.0 mi Calm Calm - N/A   Clear
7:56 AM 48.9 °F 41.0 °F 74% 30.18 in 10.0 mi Calm Calm - N/A   Clear
8:56 AM 59.0 °F 39.9 °F 49% 30.16 in 10.0 mi ENE 8.1 mph - N/A   Clear
9:56 AM 63.0 °F 39.0 °F 41% 30.17 in 10.0 mi NE 11.5 mph - N/A   Clear
10:56 AM 64.9 °F 39.0 °F 39% 30.16 in 10.0 mi East 10.4 mph - N/A   Clear
11:56 AM 64.9 °F 37.9 °F 37% 30.17 in 10.0 mi ESE 11.5 mph 19.6 mph N/A   Clear
12:56 PM 66.0 °F 37.9 °F 36% 30.15 in 10.0 mi East 9.2 mph 23.0 mph N/A   Clear
1:56 PM 66.9 °F 37.0 °F 33% 30.13 in 10.0 mi ENE 6.9 mph 18.4 mph N/A   Clear
2:56 PM 68.0 °F 37.0 °F 32% 30.12 in 10.0 mi East 6.9 mph - N/A   Clear
3:56 PM 68.0 °F 37.0 °F 32% 30.13 in 10.0 mi ENE 8.1 mph - N/A   Clear
4:56 PM 64.9 °F 36.0 °F 34% 30.15 in 10.0 mi East 6.9 mph - N/A   Clear
5:56 PM 60.1 °F 36.0 °F 41% 30.18 in 10.0 mi ENE 6.9 mph - N/A   Clear
6:56 PM 53.1 °F 37.0 °F 55% 30.22 in 10.0 mi Calm Calm - N/A   Partly Cloudy
7:56 PM 48.9 °F 37.0 °F 64% 30.21 in 10.0 mi Calm Calm - N/A   Clear
8:56 PM 46.0 °F 36.0 °F 68% 30.19 in 10.0 mi Calm Calm - N/A   Clear
9:56 PM 44.1 °F 36.0 °F 73% 30.19 in 10.0 mi Calm Calm - N/A   Clear
10:56 PM 41.0 °F 35.1 °F 79% 30.20 in 10.0 mi Calm Calm - N/A   Partly Cloudy
11:56 PM 48.9 °F 37.9 °F 66% 30.17 in 10.0 mi ENE 6.9 mph - N/A   Clear